Regional Weather Roundup
Issued by NWS

Home | Current Version | Previous Version | Graphics & Text | Print | Product List | Glossary On
Versions: 1 2 3 4 5 6 7 8 9 10 11 12 13 14 15 16 17 18 19 20 21 22 23 24 25 26 27 28 29 30 31 32 33 34 35 36 37 38 39 40 41 42 43 44 45 46 47 48 49 50
518
ASUS45 KCYS 262110
RWRWY

WYOMING REGIONAL WEATHER ROUNDUP
NATIONAL WEATHER SERVICE CHEYENNE WY
300 PM MDT WED APR 26 2017

NOTE:  "FAIR" INDICATES FEW OR NO CLOUDS BELOW 12,000 FEET
WITH NO SIGNIFICANT WEATHER AND/OR OBSTRUCTIONS TO VISIBILITY.

WYZ001-262200-
YELLOWSTONE NATIONAL PARK

CITY           SKY/WX    TMP DP  RH WIND       PRES   REMARKS
LK YELLOWSTONE   N/A     36  26  67 VRB7      29.74F WCI  30
W YELLOWSTONE  NOT AVBL

$$
WYZ002>013-054>058-071-098>099-262200-
NORTHERN WYOMING

CITY           SKY/WX    TMP DP  RH WIND       PRES   REMARKS
JACKSON        PTSUNNY   41  30  65 S6        29.76F
CODY           LGT RAIN  48  35  60 VRB5      29.66F
GREYBULL       PTSUNNY   55  27  34 VRB3      29.63F
WORLAND        FAIR      55  31  39 VRB3      29.63F
SHERIDAN       FAIR      34  28  79 W6        29.74F WCI  29
BUFFALO        NOT AVBL
GILLETTE       FAIR      43  36  76 N7        29.71F
HULETT         FAIR      39  32  75 N3        29.73F
NEWCASTLE      FAIR      45  32  61 W14G21    29.72F

$$
WYZ014>020-022>026-101>103-262200-
CENTRAL WYOMING

CITY           SKY/WX    TMP DP  RH WIND       PRES   REMARKS
BIG PINEY      FAIR      46  25  43 NW12G26   29.76S
PINEDALE       LGT RAIN  41  30  65 NW16G25   29.77S
DUBOIS         CLOUDY    43  21  42 W22G32    29.69S
LANDER         PTSUNNY   53  23  31 NE6       29.63F
RIVERTON       FAIR      53  27  36 N7        29.66F
CASPER         PTSUNNY   49  30  48 S9G20     29.67S
DOUGLAS        FAIR      55  29  36 NW12      29.68F

$$
WYZ021-027>030-104>119-262200-
SOUTHERN WYOMING

CITY           SKY/WX    TMP DP  RH WIND       PRES   REMARKS
EVANSTON       PTSUNNY   44  29  55 SW17G29   29.83S
KEMMERER         N/A     43  30  61 W25G31    29.80S
FORT BRIDGER   CLOUDY    49  29  46 W23G31    29.84S
ROCK SPRINGS   LGT RAIN  41  29  62 NW13G33   29.78S
DIXON            N/A     45  31  57 W9        29.82F
RAWLINS        PTSUNNY   41  34  76 SW10      29.75F
SARATOGA       MOCLDY    41  37  87 W9        29.78F
LARAMIE        CLOUDY    43  24  47 W22       29.74F
CHEYENNE       PTSUNNY   52  19  27 NW18G24   29.70F
TORRINGTON     CLOUDY    55  31  39 SW5       29.67F
PINE BLUFFS    CLOUDY    50  34  53 E10       29.70F

$$




USA.gov is the U.S. government's official web portal to all federal, state and local government web resources and services.